Regional Weather Roundup
Issued by NWS

Home | Current Version | Previous Version | Text Only | Print | Product List | Glossary Off
Versions: 1 2 3 4 5 6 7 8 9 10 11 12 13 14 15 16 17 18 19 20 21 22 23 24 25 26 27 28 29 30 31 32 33 34 35 36 37 38 39 40 41 42 43 44 45 46 47 48 49 50

329
ASUS45 KTFX 190010
RWRMT
MONTANA REGIONAL WEATHER ROUNDUP
NATIONAL WEATHER SERVICE GREAT FALLS MT
600 PM MDT WED APR 18 2018

NOTE: "FAIR" INDICATES FEW OR NO CLOUDS BELOW 12000 FEET WITH NO
SIGNIFICANT WEATHER AND/OR OBSTRUCTIONS TO VISIBILITY.

MTZ001>007-043-190100-
WEST OF THE DIVIDE

CITY           SKY/WX    TMP DP  RH WIND       PRES   REMARKS
KALISPELL      FAIR      50  22  33 SE5       30.14F
MISSOULA       FAIR      54  19  25 CALM      30.09F
BUTTE          FAIR      47  17  30 S9        30.10S
MULLAN PASS    FAIR      37  20  50 VRB3      30.10F
ANACONDA         N/A     52  16  24 E7        30.09S
DEER LODGE       N/A     52  16  24 SE5       30.11R
HAMILTON         N/A     52  16  24 MISG      30.08S
RONAN            N/A     52  23  32 N12       30.14F
$$

MTZ008-052>055-190100-
SOUTHWEST MONTANA

CITY           SKY/WX    TMP DP  RH WIND       PRES   REMARKS
BOZEMAN        FAIR      52  18  26 CALM      30.11F
DILLON         FAIR      47  13  25 SE8       30.09F
ENNIS          MOSUNNY   46  14  27 S7        30.14S
W YELLOWSTONE  FAIR      39  10  30 SW9       30.11F
THREE FORKS      N/A     54  19  25 N2        30.09F
TWIN BRIDGES     N/A     50  17  27 S1        30.08
$$

MTZ009-010-012-014-046-048-049-054-190100-
EAST SLOPES AND CENTRAL MONTANA

CITY           SKY/WX    TMP DP  RH WIND       PRES   REMARKS
CUT BANK       FAIR      48  17  29 VRB6      30.13S
GREAT FALLS    FAIR      51  14  22 CALM      30.13S
HELENA         FAIR      52  21  29 NE7       30.11S
CHOTEAU          N/A     50  10  20 CALM      30.14S
POWER          FAIR      50  13  23 SW5       30.12S
WHITE SULPHUR    N/A     46  18  31 VRB7G13   30.12F
$$

MTZ011-013-016-021-045-047-050-051-190100-
NORTH CENTRAL MONTANA

CITY           SKY/WX    TMP DP  RH WIND       PRES   REMARKS
HAVRE          FAIR      54  20  26 NW7       30.19S
LEWISTOWN      FAIR      50  14  23 E9        30.15F
N BAR RANCH    FAIR      48  18  29 NE8G17    30.18S
CHINOOK          N/A     50  34  53 E9        30.20S
GRASS RANGE    FAIR      50  21  32 SE8       30.13F
$$

MTZ017>020-022>027-061-062-190100-
NORTHEAST MONTANA

CITY           SKY/WX    TMP DP  RH WIND       PRES   REMARKS
GLASGOW        PTSUNNY   53  34  48 E8        30.21S
GLENDIVE       FAIR      53  29  39 N13       30.22R
JORDAN           N/A     54  31  41 E9        30.19S
MALTA          SUNNY     54  23  30 CALM      30.19S
SIDNEY         FAIR      52  32  46 N13       30.24R
WOLF POINT     FAIR      55  33  43 NE12      30.23S
PLENTYWOOD       N/A     43  37  81 NE6       30.27R
POPLAR           N/A     52  34  50 NE10      30.25R
SCOBEY           N/A     46  27  48 N9        30.23
$$

MTZ028>42-056>058-190100-
SOUTHCENTRAL AND SOUTHEAST MONTANA

CITY           SKY/WX    TMP DP  RH WIND       PRES   REMARKS
BAKER          PTSUNNY   51  33  50 NW13      30.21R
BILLINGS       FAIR      53  21  28 E14       30.16F
LIVINGSTON     FAIR      53  17  24 E5        30.10F
MILES CITY     CLOUDY    58  32  37 NE8       30.20R
BIG TIMBER     SUNNY     52  18  25 E7G15     30.14S
EKALAKA          N/A     51  23  33 N6        30.17
FORSYTH          N/A     57  21  24 CALM      30.20R
LAUREL           N/A     54  18  24 E10       30.16F
ROUNDUP          N/A     55  15  20 E5        30.06F
$$

REGIONAL REPORTS...DAKOTAS

CITY           SKY/WX    TMP DP  RH WIND       PRES   REMARKS
WILLISTON      PTSUNNY   47  36  65 N14       30.26R
MINOT          FAIR      46  36  68 NW13      30.23R
DICKINSON      FAIR      51  34  52 NE12      30.19R
BEACH          FAIR      52  23  32 N14G21    30.25R
CROSBY         CLOUDY    37  37 100 N7        30.28S FOG
TIOGA          PTSUNNY   37  37 100 N10       30.27R WCI  30
WATFORD CITY   FAIR      48  36  61 N13       30.23R
BISMARCK       FAIR      49  29  46 NE12      30.23R
GRAND FORKS    PTSUNNY   47  28  47 N10       30.19R
FARGO          FAIR      50  31  48 NE9       30.15R
BUFFALO SD       N/A     52  28  39 N16       30.13R
RAPID CITY     PTSUNNY   53  23  31 NW18G28   30.19S
$$

REGIONAL REPORTS...WYOMING/IDAHO/WASHINGTON

CITY           SKY/WX    TMP DP  RH WIND       PRES   REMARKS
GILLETTE       CLOUDY    52  21  29 NE6       30.20S
SHERIDAN       CLOUDY    50  21  32 E6        30.20S
BUFFALO WY     FAIR      50  20  30 VRB5      30.21S
CODY           FAIR      50  18  28 SE14      30.14F
YELLOWSTONE LA   N/A     34  13  41 E3        30.17F
IDAHO FALLS    CLOUDY    51  18  27 NE5       30.10F
SALMON         FAIR      54  20  26 VRB3      30.05F
BOISE          PTSUNNY   62  20  19 E12       29.96F
SPOKANE        PTSUNNY   54  23  30 NE12      30.12F
$$

REGIONAL REPORTS...ALBERTA

CITY           SKY/WX    TMP DP  RH WIND       PRES   REMARKS
CALGARY        MOSUNNY   46  19  34 S13G20    30.12S
EDMONTON       MOSUNNY   48  19  32 S8G17     30.12S
FORT MCMURRAY  PTSUNNY   46  21  36 SW10      30.04F
HIGH LEVEL     MOSUNNY   45  14  29 VRB2      29.96S
LETHBRIDGE     PTSUNNY   50  21  32 S8        30.13S
LLOYDMINSTER   MOSUNNY   45  28  53 W7        30.17S
MEDICINE HAT   MOSUNNY   54  21  28 SW10G20   30.16S
MILK RIVER       N/A     48  23  37 SE13        N/A
ONEFOUR          N/A     46  28  49 E10         N/A
PEACE RIVER    MOSUNNY   41  23  48 SW12      30.02F
PINCHER CREEK  SUNNY     46  21  36 W8G21     30.11S
$$

REGIONAL REPORTS...SASKATCHEWAN

CITY           SKY/WX    TMP DP  RH WIND       PRES   REMARKS
CORONACH         N/A     45  28  53 N9          N/A
CYPRESS HILLS    N/A     39  25  56 S7          N/A
ESTEVAN        CLOUDY    37  34  87 NW8       30.27R WCI  31
MOOSE JAW        N/A     45  30  57 SE7         N/A
PRINCE ALBERT  MOSUNNY   46  28  49 W10       30.21R
REGINA         SUNNY     37  34  87 SW6       30.28S
ROCKGLEN         N/A     43  28  56 NE6         N/A
SASKATOON      SUNNY     48  34  57 SW9       30.24S
SWIFT CURRENT  SUNNY     46  23  39 SE10      30.22S
VAL MARIE        N/A     50  27  40 NW2         N/A
$$




USA.gov is the U.S. government's official web portal to all federal, state and local government web resources and services.